Raleigh-Durham International, NC

1:54 AM EDT on March 23, 2019 (GMT -0400)
Raleigh-Durham International | | Change Station

Elev 433 ft 35.88 °N, 78.79 °W | Updated 3 minutes ago

Clear
Clear
46 °F
Feels Like 42 °F
N
8
Wind Variable Wind from NNW
Gusts 21 mph

Today
High -- | Low -- °F
--% Chance of Precip.
Yesterday
High -- | Low -- °F
Precip. -- in
Pressure 30.03 in
Visibility 10.0 miles
Clouds Clear
Windchill 42 °F
Dew Point 23 °F
Humidity 40%
Rainfall 0.00 in
Snow Depth Not available.
7:14 AM 7:29 PM
Waning Gibbous, 93% visible
METAR KRDU 230551Z 33007G18KT 290V360 10SM CLR 08/M05 A3003 RMK AO2 SLP167 T00781050 10144 20078 51015
Pressure 30.03 in
Visibility 10.0 miles
Clouds Clear
Windchill 42 °F
Dew Point 23 °F
Humidity 40%
Rainfall 0.00 in
Snow Depth Not available.
7:14 AM 7:29 PM
Waning Gibbous, 93% visible
METAR KRDU 230551Z 33007G18KT 290V360 10SM CLR 08/M05 A3003 RMK AO2 SLP167 T00781050 10144 20078 51015

Get Severe Weather Alerts

Thanks for signing up!

Be on the lookout for a verification email in your inbox.

You'll start receiving the daily forecast at 6 AM.

×

10-Day Weather Forecast

Almanac

Astronomy

Mar. 23, 2019 Rise Set
Actual Time
Civil Twilight
Nautical Twilight
Astronomical Twilight
Moon
Length of Visible Light
Length of Day
Tomorrow will be .
, % of the Moon is Illuminated

Today's Extremes

State Highs State Lows

Community

WunderPhotos

Category 6

Welcome to Category 6. This is the collective home for Weather Underground's featured writeups by Dr. Jeff Masters (right), Bob Henson (left), Chris Burt, and other regular contributors.

Nearby

Air Quality

  Air Quality AQ Index Pollutant
Not available.

Snow Depth

Station Depth Elevation

Earthquake Activity

City Distance Mag. Time & Date
Minimum magnitude displayed is 2.5.

Coastal Water Temperatures

Place Temperature

Stations

Nearby Weather Stations

Station Location Temp. Windchill Dew Point Humidity Wind Precip. Elev Updated Type
                   

Watches & Warnings

There are currently no watches in effect.